Location: Biltmore Gardens
(41.6070°N, 83.4666°W)
Time: 14:22:53
(UTC+00:00)

Okean 1-7 - Pass Details

Date: 14 July 2020
Orbit: 592 x 618 km, 82.5° (Epoch: 04 August)

Event Time Altitude Azimuth Distance (km) Brightness Sun altitude
Rises 07:40:55 0° 341° (NNW) 2,900 7.1 -20.9°
Reaches altitude 10° 07:43:21 10° 330° (NNW) 1,989 6.0 -20.6°
Enters shadow 07:47:05 29° 272° (W) 1,127 4.1 -20.3°
